Regional Weather Roundup
Issued by NWS

Home | Current Version | Previous Version | Text Only | Print | Product List | Glossary On
Versions: 1 2 3 4 5 6 7 8 9 10 11 12 13 14 15 16 17 18 19 20 21 22 23 24 25 26 27 28 29 30 31 32 33 34 35 36 37 38 39 40 41 42 43 44 45 46 47 48 49 50
723
ASUS44 KLIX 180207
RWRLA
LOUISIANA WEATHER ROUNDUP
NATIONAL WEATHER SERVICE NEW ORLEANS LA
900 PM CDT FRI APR 17 2015

NOTE: "FAIR" INDICATES FEW OR NO CLOUDS BELOW 12,000 FEET WITH NO
      SIGNIFICANT WEATHER AND/OR OBSTRUCTIONS TO VISIBILITY.
      SKY/WX - SKY CONDITION AND SIGNIFICANT WEATHER.
      TMP - AIR TEMPERATURE.    DP   - DEWPOINT TEMPERATURE.
      RH  - RELATIVE HUMIDITY.  PRES - PRESSURE.
      HX  - HEAT INDEX.         WCI  - WIND CHILL INDEX.

*  THESE STATIONS ARE NOT NWS OR FAA STATIONS AND ARE NOT UNDER
   NWS QUALITY CONTROL.

LAZ040-048-061>063-065-066-069-180300-
SOUTHEAST LOUISIANA

CITY           SKY/WX    TMP DP  RH WIND       PRES   REMARKS
N.O. AUDUBON     N/A     75  75  99 MISG        N/A
N.O. INTL ARPT CLOUDY    76  69  79 S6        29.93R
N.O. LAKEFRONT CLOUDY    79  70  74 S5        29.94R
SLIDELL        CLOUDY    73  72  96 CALM      29.93R
BATON ROUGE    CLOUDY    73  69  87 CALM      29.93R
BOOTHVILLE     CLOUDY    75  71  87 SW5       29.95R
BELLE CHASSE   CLOUDY    73  69  87 S3        29.93R
BOGALUSA*        N/A     73  69  86 CALM      29.95R
GALLIANO*      CLOUDY    76  72  87 CALM      29.95R
NEW ROADS*     FAIR      74  72  93 CALM      29.93R
GONZALES*      FAIR      73  73 100 CALM      29.92S
HAMMOND*       CLOUDY    73  68  83 CALM      29.95R
HOUMA*         CLOUDY    73  71  95 CALM      29.92F
PORT FOURCHON* MOCLDY    77  72  83 SE6       29.97F

$$

LAZ041-044-053-054-180300-
SOUTHWEST LOUISIANA

CITY           SKY/WX    TMP DP  RH WIND       PRES   REMARKS
LAKE CHARLES   CLOUDY    76  70  82 E6        29.91R
LAFAYETTE      CLOUDY    76  71  85 CALM      29.91S
PATTERSON      CLOUDY    73  70  88 E3        29.93S
SALT POINT       N/A     73  70  90 CALM      29.90S
NEW IBERIA     CLOUDY    78  71  79 E3        29.92S
CHENAULT AIRPK NOT AVBL

$$

LAZ027-028-180300-
CENTRAL LOUISIANA

CITY           SKY/WX    TMP DP  RH WIND       PRES   REMARKS
FORT POLK      CLOUDY    73  67  81 S8        29.93R
ALEXANDRIA INT CLOUDY    71  68  90 CALM      29.91S
ALEXANDRIA     CLOUDY    69  68  96 CALM      29.93R

$$

LAZ001-002-180300-
NORTHWEST LOUISIANA

CITY           SKY/WX    TMP DP  RH WIND       PRES   REMARKS
SHREVEPORT     CLOUDY    71  67  87 S5        29.93R
BARKSDALE AFB  CLOUDY    70  66  85 SE5       29.93R
DTN SHREVEPORT CLOUDY    70  63  78 SE3       29.93S

$$

LAZ014-016-180300-
NORTHEAST LOUISIANA

CITY           SKY/WX    TMP DP  RH WIND       PRES   REMARKS
MONROE         CLOUDY    70  65  84 CALM      29.97R
TALLULAH       CLOUDY    66  63  90 CALM      29.96R

$$




USA.gov is the U.S. government's official web portal to all federal, state and local government web resources and services.